MST,Max TemperatureF,Mean TemperatureF,Min TemperatureF,Max Dew PointF,MeanDew PointF,Min DewpointF,Max Humidity, Mean Humidity, Min Humidity, Max Sea Level PressureIn, Mean Sea Level PressureIn, Min Sea Level PressureIn, Max VisibilityMiles, Mean VisibilityMiles, Min VisibilityMiles, Max Wind SpeedMPH, Mean Wind SpeedMPH, Max Gust SpeedMPH,PrecipitationIn, CloudCover, Events, WindDirDegrees
2013-1-1,12,-2,-15,7,-1,-21,87,81,73,30.64,30.36,30.18,10,10,4,9,1,,0.00,7,Snow,356
2013-1-2,9,-6,-20,3,-13,-26,85,78,64,30.78,30.47,30.30,10,6,0,6,1,,0.00,5,Fog,178
2013-1-3,14,0,-15,7,-7,-21,88,78,62,30.73,30.64,30.57,10,10,10,6,3,,0.00,0,,116
2013-1-4,21,5,-11,8,-6,-17,84,77,53,30.65,30.57,30.47,10,10,10,7,2,,0.00,0,,94
2013-1-5,16,2,-11,6,-6,-17,83,76,51,30.71,30.58,30.42,10,10,8,7,2,,0.00,0,,130
2013-1-6,32,16,0,18,7,-6,87,75,55,30.38,30.24,30.10,10,10,10,9,4,,0.00,2,,107
2013-1-7,25,12,-1,22,14,-6,93,85,74,30.34,30.12,30.01,10,5,1,16,5,,0.00,6,Snow,172
2013-1-8,32,26,21,26,23,19,92,85,79,30.30,30.18,30.00,10,9,4,17,12,,0.00,8,Snow,179
2013-1-9,41,32,24,27,22,15,82,64,38,30.30,30.07,29.69,10,10,7,17,8,,0.00,3,,166
2013-1-10,41,28,15,30,23,12,100,87,38,29.71,29.54,29.42,10,3,0,28,10,39,0.01,8,Fog-Snow,190
2013-1-11,15,8,-8,10,2,-13,92,83,78,30.13,29.68,29.47,10,3,0,16,8,,0.00,8,Snow,279
2013-1-12,3,-12,-26,-6,-15,-33,84,77,63,30.45,30.17,29.84,10,9,2,12,3,,0.00,4,Snow,95
2013-1-13,0,-14,-29,-8,-19,-35,84,77,68,30.63,30.29,29.97,10,10,10,7,1,,0.00,4,,99
2013-1-14,-2,-17,-32,-8,-14,-29,84,77,70,30.75,30.31,30.07,10,8,2,8,2,,0.00,7,Snow,142
2013-1-15,9,4,-2,3,-1,-8,87,79,70,30.74,30.49,30.22,10,10,7,6,2,,0.00,8,Snow,268
2013-1-16,15,3,-10,5,0,-16,92,80,64,30.88,30.66,30.48,10,9,1,6,1,,0.00,5,Snow,115
2013-1-17,15,1,-13,11,-6,-18,88,80,64,30.88,30.67,30.50,10,6,0,4,0,,0.00,0,Fog,81
2013-1-18,19,6,-6,10,-2,-12,88,82,68,30.69,30.55,30.37,10,7,0,8,3,,0.00,0,Fog,109
2013-1-19,20,6,-9,13,-4,-15,88,81,65,30.72,30.55,30.35,10,7,0,7,2,,0.00,1,Fog-Snow,81
2013-1-20,19,6,-6,10,1,-11,88,78,62,30.69,30.60,30.53,10,10,10,6,3,,0.00,0,,124
2013-1-21,22,9,-4,10,0,-8,84,77,57,30.65,30.56,30.46,10,10,10,6,2,,0.00,0,,86
2013-1-22,23,10,-4,11,0,-8,88,74,58,30.59,30.51,30.43,10,10,10,6,2,,0.00,0,,104
2013-1-23,36,18,1,19,9,-6,77,63,41,30.47,30.33,30.17,10,10,10,9,3,,0.00,1,,114
2013-1-24,37,34,30,30,26,15,92,76,48,30.26,30.18,30.10,10,10,10,17,9,,0.00,7,,182
2013-1-25,37,34,32,29,27,26,82,75,65,30.25,30.16,30.03,10,10,10,12,8,,0.00,8,,157
2013-1-26,38,35,32,34,32,27,100,86,70,30.07,29.89,29.74,10,10,10,12,6,,0.02,8,Rain,171
2013-1-27,34,28,21,32,26,18,100,93,80,29.82,29.74,29.66,10,3,0,14,6,,0.15,8,Fog-Snow,154
2013-1-28,21,18,13,18,13,7,93,81,68,29.95,29.84,29.75,10,7,1,15,9,,0.00,8,Snow,171
2013-1-29,19,13,7,14,11,3,92,83,73,30.18,29.88,29.72,10,6,0,12,6,,0.00,7,Fog-Snow,138
2013-1-30,30,22,15,27,19,10,89,83,72,30.13,30.04,29.98,10,8,1,15,10,,0.00,8,Snow,166
2013-1-31,31,28,24,28,24,20,92,81,75,30.26,30.20,30.13,10,9,2,16,9,,0.01,8,Snow,168